| time (UTC) | temp F | wind direction | speed MPH | gust MPH | rain 1hr in | rain 24hr in | rain mn in | humidity % | barometer mb |
| 20260904060437 | 73 | 233 | 0.0 | 1.0 | 1.29 | 1.59 | 1.58 | 92 | 1014.4 |
| 20260904055437 | 73 | 233 | 0.0 | 1.0 | 1.40 | 1.58 | 1.56 | 92 | 1015.0 |
| 20260904054437 | 73 | 233 | 0.0 | 0.0 | 1.38 | 1.54 | 1.52 | 92 | 1016.0 |
| 20260904053437 | 74 | 233 | 0.0 | 2.0 | 1.22 | 1.37 | 1.36 | 92 | 1017.1 |
| 20260904052507 | 74 | 132 | 0.0 | 1.0 | 0.98 | 1.14 | 1.12 | 92 | 1016.5 |
| 20260904051437 | 74 | 313 | 2.0 | 7.0 | 0.72 | 0.79 | 0.79 | 91 | 1015.9 |
| 20260904050436 | 74 | 38 | 0.0 | 9.0 | 0.32 | 0.31 | 0.31 | 91 | 1016.4 |
| 20260904045437 | 74 | 323 | 3.0 | 3.0 | 0.18 | 0.18 | 0.16 | 91 | 1015.1 |
| 20260904044437 | 73 | 118 | 0.0 | 0.0 | 0.16 | 0.16 | 0.14 | 90 | 1014.5 |
| 20260904043437 | 74 | 5 | 0.0 | 0.0 | 0.16 | 0.16 | 0.14 | 91 | 1014.4 |
| 20260904042507 | 74 | 102 | 1.0 | 1.0 | 0.16 | 0.16 | 0.14 | 89 | 1014.6 |
| 20260904040437 | 78 | 265 | 2.0 | 5.0 | 0.01 | 0.01 | 0.01 | 84 | 1014.8 |
| 20260904035437 | 80 | 186 | 10.0 | 10.0 | 0.00 | 0.00 | 0.00 | 86 | 1014.2 |
| 20260904034437 | 80 | 215 | 4.0 | 4.0 | 0.00 | 0.00 | 0.00 | 89 | 1014.0 |
| 20260904033437 | 81 | 30 | 0.0 | 0.0 | 0.00 | 0.00 | 0.00 | 89 | 1013.1 |
| 20260904032437 | 80 | 30 | 0.0 | 0.0 | 0.00 | 0.00 | 0.00 | 89 | 1013.3 |
| 20260904031437 | 80 | 30 | 0.0 | 0.0 | 0.00 | 0.00 | 0.00 | 89 | 1013.6 |
| 20260904030437 | 80 | 30 | 0.0 | 0.0 | 0.00 | 0.00 | 0.00 | 89 | 1013.5 |
| 20260904024437 | 80 | 30 | 0.0 | 0.0 | 0.00 | 0.00 | 0.00 | 89 | 1013.8 |
| 20260904023437 | 80 | 30 | 0.0 | 0.0 | 0.00 | 0.00 | 0.00 | 89 | 1014.0 |
| 20260904022437 | 80 | 30 | 0.0 | 0.0 | 0.00 | 0.00 | 0.00 | 88 | 1014.0 |
| 20260904021437 | 80 | 30 | 0.0 | 0.0 | 0.00 | 0.00 | 0.00 | 88 | 1013.9 |
| 20260904020507 | 80 | 30 | 0.0 | 0.0 | 0.00 | 0.00 | 0.00 | 88 | 1013.8 |
| 20260904015437 | 81 | 30 | 0.0 | 0.0 | 0.00 | 0.00 | 0.00 | 88 | 1013.8 |
| 20260904014437 | 80 | 30 | 0.0 | 0.0 | 0.00 | 0.00 | 0.00 | 88 | 1013.9 |
| 20260904013437 | 81 | 30 | 0.0 | 0.0 | 0.00 | 0.00 | 0.00 | 88 | 1014.0 |
| 20260904012437 | 81 | 30 | 0.0 | 0.0 | 0.00 | 0.00 | 0.00 | 88 | 1014.3 |
| 20260904010437 | 81 | 30 | 0.0 | 0.0 | 0.00 | 0.00 | 0.00 | 88 | 1014.6 |
| 20260904005437 | 81 | 30 | 0.0 | 0.0 | 0.00 | 0.00 | 0.00 | 87 | 1014.8 |
| 20260904004437 | 81 | 30 | 0.0 | 0.0 | 0.00 | 0.00 | 0.00 | 87 | 1014.7 |
| 20260904002437 | 82 | 30 | 0.0 | 0.0 | 0.00 | 0.00 | 0.00 | 86 | 1014.6 |
| 20260904001437 | 82 | 30 | 0.0 | 0.0 | 0.00 | 0.00 | 0.00 | 86 | 1014.4 |
| 20260904000437 | 83 | 30 | 0.0 | 0.0 | 0.00 | 0.00 | 0.00 | 85 | 1014.2 |
| 20260903235437 | 82 | 30 | 0.0 | 0.0 | 0.00 | 0.00 | 0.00 | 85 | 1014.1 |
| 20260903234437 | 83 | 30 | 0.0 | 0.0 | 0.00 | 0.00 | 0.00 | 84 | 1013.9 |
| 20260903232437 | 84 | 236 | 0.0 | 0.0 | 0.00 | 0.00 | 0.00 | 83 | 1013.8 |
| 20260903231437 | 85 | 223 | 0.0 | 0.0 | 0.00 | 0.00 | 0.00 | 82 | 1013.9 |
| 20260903230437 | 86 | 222 | 0.0 | 0.0 | 0.00 | 0.00 | 0.00 | 81 | 1013.8 |
| 20260903225437 | 86 | 222 | 0.0 | 0.0 | 0.00 | 0.00 | 0.00 | 80 | 1013.8 |
| 20260903224437 | 87 | 222 | 0.0 | 0.0 | 0.00 | 0.00 | 0.00 | 78 | 1013.7 |
| 20260903223437 | 87 | 222 | 0.0 | 0.0 | 0.00 | 0.00 | 0.00 | 78 | 1013.7 |
| 20260903222437 | 87 | 223 | 0.0 | 0.0 | 0.00 | 0.00 | 0.00 | 79 | 1013.7 |
| 20260903221437 | 88 | 223 | 0.0 | 0.0 | 0.00 | 0.00 | 0.00 | 77 | 1013.8 |
| 20260903220437 | 88 | 223 | 0.0 | 0.0 | 0.00 | 0.00 | 0.00 | 76 | 1013.9 |
| 20260903215437 | 88 | 223 | 0.0 | 0.0 | 0.00 | 0.00 | 0.00 | 75 | 1013.9 |
| 20260903214437 | 88 | 222 | 0.0 | 0.0 | 0.00 | 0.00 | 0.00 | 74 | 1014.0 |
| 20260903213437 | 88 | 241 | 0.0 | 1.0 | 0.00 | 0.00 | 0.00 | 74 | 1013.9 |
| 20260903212507 | 89 | 294 | 1.0 | 3.0 | 0.00 | 0.00 | 0.00 | 73 | 1014.0 |
| 20260903210437 | 89 | 225 | 1.0 | 2.0 | 0.00 | 0.00 | 0.00 | 71 | 1014.0 |
| 20260903205437 | 89 | 285 | 2.0 | 2.0 | 0.00 | 0.00 | 0.00 | 74 | 1014.1 |
| 20260903204438 | 89 | 228 | 0.0 | 1.0 | 0.00 | 0.00 | 0.00 | 69 | 1014.2 |
| 20260903203437 | 88 | 284 | 0.0 | 1.0 | 0.00 | 0.00 | 0.00 | 74 | 1014.4 |
| 20260903202437 | 89 | 279 | 1.0 | 1.0 | 0.00 | 0.00 | 0.00 | 77 | 1014.6 |
| 20260903201437 | 88 | 279 | 0.0 | 1.0 | 0.00 | 0.00 | 0.00 | 75 | 1014.7 |
| 20260903200507 | 88 | 288 | 0.0 | 2.0 | 0.00 | 0.00 | 0.00 | 77 | 1014.7 |
| 20260903195437 | 87 | 286 | 2.0 | 3.0 | 0.00 | 0.00 | 0.00 | 75 | 1014.7 |
| 20260903194437 | 87 | 260 | 0.0 | 0.0 | 0.00 | 0.00 | 0.00 | 78 | 1015.0 |
| 20260903193437 | 89 | 228 | 0.0 | 0.0 | 0.00 | 0.00 | 0.00 | 75 | 1014.9 |
| 20260903192437 | 88 | 263 | 0.0 | 3.0 | 0.00 | 0.00 | 0.00 | 75 | 1014.8 |
| 20260903191437 | 88 | 292 | 1.0 | 1.0 | 0.00 | 0.00 | 0.00 | 76 | 1014.9 |
| 20260903190437 | 88 | 233 | 0.0 | 1.0 | 0.00 | 0.00 | 0.00 | 76 | 1014.9 |
| 20260903185437 | 89 | 239 | 2.0 | 2.0 | 0.00 | 0.02 | 0.00 | 75 | 1015.0 |
| 20260903184437 | 88 | 234 | 0.0 | 3.0 | 0.00 | 0.02 | 0.00 | 77 | 1015.2 |
| 20260903182437 | 88 | 302 | 1.0 | 3.0 | 0.00 | 0.02 | 0.00 | 77 | 1015.4 |
| 20260903181437 | 88 | 279 | 0.0 | 3.0 | 0.00 | 0.02 | 0.00 | 78 | 1015.7 |
| 20260903180437 | 88 | 227 | 0.0 | 1.0 | 0.00 | 0.02 | 0.00 | 78 | 1015.9 |
| 20260903175437 | 87 | 295 | 1.0 | 2.0 | 0.00 | 0.02 | 0.00 | 78 | 1016.1 |
| 20260903174437 | 88 | 276 | 0.0 | 2.0 | 0.00 | 0.02 | 0.00 | 77 | 1016.1 |
| 20260903173437 | 87 | 190 | 1.0 | 3.0 | 0.00 | 0.02 | 0.00 | 79 | 1016.2 |
| 20260903172507 | 86 | 275 | 1.0 | 2.0 | 0.00 | 0.02 | 0.00 | 80 | 1016.3 |
| 20260903171437 | 86 | 263 | 1.0 | 1.0 | 0.00 | 0.02 | 0.00 | 79 | 1016.4 |
| 20260903170437 | 86 | 217 | 0.0 | 3.0 | 0.00 | 0.02 | 0.00 | 78 | 1016.4 |
| 20260903165437 | 86 | 213 | 0.0 | 4.0 | 0.00 | 0.02 | 0.00 | 79 | 1016.3 |
| 20260903164507 | 86 | 217 | 0.0 | 3.0 | 0.00 | 0.02 | 0.00 | 80 | 1016.7 |
| 20260903163437 | 86 | 284 | 0.0 | 1.0 | 0.00 | 0.02 | 0.00 | 81 | 1016.7 |
| 20260903162437 | 86 | 286 | 2.0 | 2.0 | 0.00 | 0.02 | 0.00 | 81 | 1016.8 |
| 20260903160508 | 85 | 30 | 0.0 | 0.0 | 0.00 | 0.02 | 0.00 | 82 | 1017.1 |
| 20260903155437 | 85 | 227 | 0.0 | 3.0 | 0.00 | 0.02 | 0.00 | 83 | 1017.2 |
| 20260903154437 | 84 | 246 | 0.0 | 2.0 | 0.00 | 0.02 | 0.00 | 83 | 1017.1 |
| 20260903152508 | 83 | 17 | 0.0 | 1.0 | 0.00 | 0.02 | 0.00 | 84 | 1017.0 |
| 20260903150508 | 83 | 17 | 1.0 | 2.0 | 0.00 | 0.02 | 0.00 | 84 | 1016.6 |
| 20260903145438 | 83 | 140 | 1.0 | 3.0 | 0.00 | 0.02 | 0.00 | 85 | 1016.4 |
| 20260903144437 | 82 | 109 | 0.0 | 1.0 | 0.00 | 0.02 | 0.00 | 86 | 1016.5 |
| 20260903143437 | 82 | 186 | 0.0 | 1.0 | 0.00 | 0.02 | 0.00 | 87 | 1016.6 |
| 20260903142438 | 81 | 167 | 0.0 | 0.0 | 0.00 | 0.02 | 0.00 | 87 | 1016.7 |
| 20260903141438 | 81 | 167 | 0.0 | 2.0 | 0.00 | 0.02 | 0.00 | 87 | 1017.1 |
| 20260903140437 | 81 | 148 | 0.0 | 0.0 | 0.00 | 0.02 | 0.00 | 89 | 1017.2 |
| 20260903135438 | 80 | 182 | 0.0 | 3.0 | 0.00 | 0.02 | 0.00 | 89 | 1017.1 |
| 20260903134438 | 80 | 243 | 0.0 | 0.0 | 0.00 | 0.02 | 0.00 | 90 | 1017.2 |
| 20260903133437 | 79 | 243 | 0.0 | 0.0 | 0.00 | 0.02 | 0.00 | 91 | 1017.3 |
| 20260903132438 | 80 | 243 | 0.0 | 0.0 | 0.00 | 0.02 | 0.00 | 91 | 1017.5 |
| 20260903130507 | 79 | 243 | 0.0 | 0.0 | 0.00 | 0.02 | 0.00 | 92 | 1017.7 |
| 20260903125437 | 79 | 243 | 0.0 | 0.0 | 0.00 | 0.02 | 0.00 | 92 | 1017.8 |
| 20260903124437 | 78 | 243 | 0.0 | 1.0 | 0.00 | 0.02 | 0.00 | 93 | 1017.8 |
| 20260903123438 | 77 | 243 | 0.0 | 0.0 | 0.00 | 0.02 | 0.00 | 93 | 1017.8 |
| 20260903122438 | 77 | 243 | 0.0 | 0.0 | 0.00 | 0.02 | 0.00 | 93 | 1017.8 |
| 20260903121438 | 77 | 243 | 0.0 | 0.0 | 0.00 | 0.02 | 0.00 | 94 | 1017.3 |
| 20260903120508 | 76 | 243 | 0.0 | 0.0 | 0.00 | 0.02 | 0.00 | 93 | 1017.4 |
| 20260903115438 | 76 | 243 | 0.0 | 0.0 | 0.00 | 0.02 | 0.00 | 94 | 1017.5 |
| 20260903114438 | 75 | 243 | 0.0 | 0.0 | 0.00 | 0.02 | 0.00 | 93 | 1017.4 |
| 20260903112438 | 75 | 243 | 0.0 | 0.0 | 0.00 | 0.02 | 0.00 | 94 | 1017.1 |
| 20260903111438 | 74 | 267 | 0.0 | 0.0 | 0.00 | 0.02 | 0.00 | 93 | 1016.9 |
| 20260903110508 | 74 | 302 | 0.0 | 0.0 | 0.00 | 0.02 | 0.00 | 93 | 1016.9 |
| 20260903105438 | 74 | 302 | 0.0 | 0.0 | 0.00 | 0.02 | 0.00 | 93 | 1017.0 |
| 20260903104438 | 74 | 302 | 0.0 | 0.0 | 0.00 | 0.02 | 0.00 | 93 | 1017.0 |
| 20260903102438 | 73 | 113 | 0.0 | 0.0 | 0.00 | 0.02 | 0.00 | 93 | 1016.8 |
| 20260903101438 | 73 | 113 | 0.0 | 0.0 | 0.00 | 0.02 | 0.00 | 93 | 1016.7 |
| 20260903100438 | 73 | 113 | 0.0 | 0.0 | 0.00 | 0.02 | 0.00 | 93 | 1016.5 |